Location: Ayer Observatory
(42.2600°N, 71.0700°W)
Time: 09:41:02
(UTC-04:00)

XW-2A - Pass Details

Date: 07 August 2020
Orbit: 428 x 443 km, 97.3° (Epoch: 21 September)

Event Time Altitude Azimuth Distance (km) Brightness Sun altitude
Exits shadow 21:07:17 14° 167° (SSE) 1,308 ? -12.4°
Maximum altitude 21:10:02 90° 241° (WSW) 436 ? -12.8°
Drops below altitude 10° 21:13:20 10° 348° (NNW) 1,536 ? -13.3°
Sets 21:15:21 0° 348° (NNW) 2,407 ? -13.6°
